Location: Newark
(48.5667°N, 7.8167°E)
Time: 19:56:11
(UTC+00:00)

X-37B - Pass Details

Date: 04 August 2021
Orbit: 381 x 393 km, 45.0° (Epoch: 29 August)

Event Time Altitude Azimuth Distance (km) Brightness Sun altitude
Exits shadow 02:16:23 17° 159° (SSE) 1,043 2.5 -15.1°
Maximum altitude 02:16:35 17° 154° (SSE) 1,040 2.5 -15.0°
Drops below altitude 10° 02:18:45 10° 110° (ESE) 1,397 3.6 -14.8°
Sets 02:21:15 0° 90° (E) 2,253 5.1 -14.5°
